Location: Berua Church
(35.0423°N, 88.5987°W)
Time: 07:56:43
(UTC+00:00)

Lacrosse 5 rocket - Pass Details

Date: 08 December 2019
Orbit: 465 x 633 km, 57.0° (Epoch: 20 January)

Event Time Altitude Azimuth Distance (km) Brightness Sun altitude
Rises 23:28:53 0° 251° (WSW) 2,832 7.4 -9.5°
Reaches altitude 10° 23:31:34 10° 265° (W) 1,904 5.5 -10.0°
Maximum altitude 23:35:02 23° 319° (NW) 1,228 3.3 -10.6°
Drops below altitude 10° 23:38:23 10° 13° (NNE) 1,826 3.7 -11.3°
Enters shadow 23:39:26 - 21° (NNE) 2,166 4.0 -11.5°
